User: anonymous   Login
Location: Archemont
(49.1579°N, 1.7598°E)
Time: 06:32:39
(UTC+00:00)
Language:

deb r/b Ablestar - Orbit

View from above orbital plane
View from above orbital plane
View from above satellite
View from above satellite

Ground track
Ground track

The orbit data is extracted from the following two-line orbital elements,

1 00262U 61015CJ  24197.41902191  .00002447  00000-0  63159-3 0  9997
2 00262  66.4632 198.4971 0077199 227.2922 132.1667 14.50005709256344
Epoch (UTC): 15 July 2024 10:03:23
Eccentricity: 0.0077199
inclination: 66.4632°
perigee height: 671 km
apogee height: 780 km
right ascension of ascending node: 198.4971°
argument of perigee: 227.2922°
revolutions per day: 14.50005709
mean anomaly at epoch: 132.1667°
orbit number at epoch: 25634

The dashed part of the orbit path shows where the satellite is in the earth's shadow,  

DLR